Logan Martin Lake Weather Center

Moon Phase Calendar



Logan Martin Lake Water Level
Online Cameras

 


      

Current Conditions in Riverside
4/24/2024 11:00:20 AM

66°F
Feels Like 66
Clouds
Humidity
75%
Pressure
30.15"
Wind
6.9 mph (SW)
Dew Point
58°F
UV Index
4/10 (Moderate)
Visibility
6 mi

Hourly Forecast

Date & Time Wed, Apr 24
11:00 AM
Wed, Apr 24
12:00 PM
Wed, Apr 24
1:00 PM
Wed, Apr 24
2:00 PM
Wed, Apr 24
3:00 PM
Wed, Apr 24
4:00 PM
Wed, Apr 24
5:00 PM
Wed, Apr 24
6:00 PM
Wed, Apr 24
7:00 PM
Wed, Apr 24
8:00 PM
Wed, Apr 24
9:00 PM
Wed, Apr 24
10:00 PM
Wed, Apr 24
11:00 PM
Thu, Apr 25
12:00 AM
Thu, Apr 25
1:00 AM
Thu, Apr 25
2:00 AM
Thu, Apr 25
3:00 AM
Thu, Apr 25
4:00 AM
Thu, Apr 25
5:00 AM
Thu, Apr 25
6:00 AM
Thu, Apr 25
7:00 AM
Thu, Apr 25
8:00 AM
Thu, Apr 25
9:00 AM
Thu, Apr 25
10:00 AM
Thu, Apr 25
11:00 AM
Thu, Apr 25
12:00 PM
Thu, Apr 25
1:00 PM
Thu, Apr 25
2:00 PM
Thu, Apr 25
3:00 PM
Thu, Apr 25
4:00 PM
Thu, Apr 25
5:00 PM
Thu, Apr 25
6:00 PM
Thu, Apr 25
7:00 PM
Thu, Apr 25
8:00 PM
Thu, Apr 25
9:00 PM
Thu, Apr 25
10:00 PM
Thu, Apr 25
11:00 PM
Fri, Apr 26
12:00 AM
Fri, Apr 26
1:00 AM
Fri, Apr 26
2:00 AM
Fri, Apr 26
3:00 AM
Fri, Apr 26
4:00 AM
Fri, Apr 26
5:00 AM
Fri, Apr 26
6:00 AM
Fri, Apr 26
7:00 AM
Fri, Apr 26
8:00 AM
Fri, Apr 26
9:00 AM
Fri, Apr 26
10:00 AM
Condition
Clouds

Clouds

Clouds

Clouds

Clouds

Clouds

Clouds

Rain

Rain

Clear

Clear

Clear

Clouds

Clouds

Clouds

Clouds

Clouds

Clouds

Clouds

Clouds

Clouds

Clouds

Clouds

Clouds

Clouds

Clouds

Clouds

Clear

Clouds

Clouds

Clouds

Clouds

Clouds

Clouds

Clouds

Clouds

Rain

Rain

Clouds

Clouds

Clouds

Clouds

Clouds

Clouds

Clouds

Clouds

Clouds

Clouds
Temperature 66°F68°F69°F70°F70°F72°F71°F69°F65°F61°F59°F58°F57°F56°F56°F55°F53°F52°F51°F51°F53°F59°F64°F69°F73°F77°F80°F81°F81°F79°F78°F73°F68°F66°F65°F64°F63°F61°F61°F61°F61°F60°F60°F59°F62°F66°F71°F75°F
Feels Like 66°F68°F68°F69°F70°F71°F71°F69°F65°F61°F59°F58°F57°F56°F55°F54°F53°F51°F51°F50°F53°F58°F63°F68°F73°F77°F80°F80°F80°F79°F77°F73°F67°F66°F64°F63°F63°F61°F61°F61°F61°F60°F60°F59°F62°F66°F71°F75°F
Cloudiness 100%84%74%100%100%100%97%89%81%0%6%7%14%29%41%87%45%38%30%24%22%100%56%39%31%28%26%8%37%58%69%76%80%100%100%100%100%100%100%100%100%100%100%93%95%94%96%98%
Visibility 6 mi6 mi6 mi6 mi6 mi6 mi6 mi6 mi6 mi6 mi6 mi6 mi6 mi6 mi6 mi6 mi6 mi6 mi6 mi6 mi6 mi6 mi6 mi6 mi6 mi6 mi6 mi6 mi6 mi6 mi6 mi6 mi6 mi6 mi6 mi6 mi6 mi6 mi6 mi6 mi6 mi6 mi6 mi6 mi6 mi6 mi6 mi6 mi
Precipitation 0%0%0%0%0%0%0%20%20%0%0%0%0%0%0%0%0%0%0%0%0%0%0%0%0%0%0%0%0%0%0%0%0%0%0%0%20%20%0%0%0%0%0%0%0%0%0%0%
Humidity 75%69%66%63%63%61%68%74%83%88%89%89%90%92%91%91%90%90%91%91%86%71%58%51%47%44%42%39%38%39%46%60%67%67%69%70%78%86%87%86%86%87%88%91%90%83%72%62%
Dew Point 58°F57°F57°F57°F57°F57°F59°F60°F60°F57°F56°F55°F54°F54°F53°F52°F51°F49°F49°F48°F49°F49°F49°F50°F52°F54°F54°F53°F53°F52°F55°F58°F57°F54°F54°F54°F56°F57°F57°F57°F57°F56°F57°F56°F58°F60°F61°F61°F
Pressure 30.15"30.15"30.15"30.12"30.09"30.06"30.09"30.09"30.09"30.12"30.12"30.15"30.15"30.12"30.12"30.12"30.15"30.15"30.18"30.18"30.21"30.21"30.21"30.21"30.18"30.15"30.12"30.09"30.09"30.06"30.06"30.06"30.06"30.09"30.12"30.09"30.12"30.09"30.06"30.06"30.06"30.06"30.09"30.09"30.12"30.12"30.12"30.12"
Wind Speed 7.2 mph7.3 mph7.7 mph8.1 mph7.1 mph6.6 mph6.4 mph4.9 mph4 mph3.6 mph2.2 mph1.6 mph3.2 mph2.8 mph3.8 mph4 mph4.2 mph4.6 mph4.2 mph4.3 mph3.8 mph4.3 mph4 mph3.8 mph3.4 mph2.1 mph1.2 mph1 mph1.7 mph2 mph1.6 mph3.5 mph4.3 mph3.1 mph1.4 mph1.4 mph2.4 mph3.4 mph4.2 mph1.7 mph0.7 mph1.1 mph2.1 mph2.3 mph1.4 mph2.3 mph4.9 mph7 mph
Wind
Direction
271°
W
276°
W
286°
WNW
290°
WNW
291°
WNW
297°
WNW
310°
NW
314°
NW
291°
WNW
289°
WNW
307°
NW
360°
N
41°
NE
35°
NE
15°
NNE
21°
NNE
25°
NNE
31°
NNE
26°
NNE
43°
NE
53°
NE
47°
NE
58°
ENE
48°
NE
63°
ENE
54°
NE
19°
NNE
333°
NNW
335°
NNW
315°
NW
356°
N
37°
NE
47°
NE
78°
ENE
273°
W
23°
NNE
17°
NNE
70°
ENE
74°
ENE
113°
ESE
150°
SSE
96°
E
118°
ESE
103°
ESE
110°
ESE
126°
SE
146°
SE
153°
SSE

Daily Forecast

Date High Low Precip. Humidity
Today
Apr 24

Rain
72 °F
49 °F
20%
69%
Thursday
Apr 25

Rain
81 °F
51 °F
20%
44%
Friday
Apr 26

Rain
82 °F
59 °F
20%
49%
Saturday
Apr 27

Clouds
80 °F
64 °F
0%
50%
Sunday
Apr 28

Clouds
77 °F
62 °F
0%
55%
Monday
Apr 29

Clouds
84 °F
63 °F
0%
47%
Tuesday
Apr 30

Rain
85 °F
64 °F
69%
42%
Wednesday
May 1

Clear
88 °F
62 °F
0%
40%
Thursday
May 2

Rain
89 °F
67 °F
65%
39%
Friday
May 3

Clouds
88 °F
67 °F
0%
37%
Saturday
May 4

Clouds
88 °F
63 °F
0%
33%
Sunday
May 5

Rain
88 °F
65 °F
100%
44%
Monday
May 6

Rain
82 °F
63 °F
100%
59%
Tuesday
May 7

Rain
67 °F
53 °F
100%
59%
Wednesday
May 8

Clouds
68 °F
47 °F
0%
32%
Thursday
May 9

Clouds
74 °F
44 °F
0%
31%

Temperature 8-14 Day Outlook



Precipitation 8-14 Day Outlook




Quick Links
Logan Martin Lake News
Logan Martin Lake Photos
Logan Martin Lake Videos




About Us
Contact Us
Site Map
Search Site
Advertise With Us
   
www.LoganMartin.info
THE LOGAN MARTIN LAKE WEBSITE

Copyright 2024, Lakes Online
Privacy    |    Legal